Regional Weather Roundup
Issued by NWS

Home | Current Version | Previous Version | Graphics & Text | Print | Product List | Glossary On
Versions: 1 2 3 4 5 6 7 8 9 10 11 12 13 14 15 16 17 18 19 20 21 22 23 24 25 26 27 28 29 30 31 32 33 34 35 36 37 38 39 40 41 42 43 44 45 46 47 48 49 50
227
ASUS43 KOAX 301602
RWRNE

WEATHER ROUNDUP FOR NEBRASKA
NATIONAL WEATHER SERVICE OMAHA NE
1100 AM CDT SAT JUL 30 2016

NOTES: SATELLITE DATA IS BEING USED TO AUGMENT CLOUD COVER ABOVE
       12000 FEET.
       "FAIR" INDICATES FEW OR NO CLOUDS BELOW 12,000 FEET WITH NO
       SIGNIFICANT WEATHER AND/OR OBSTRUCTIONS TO VISIBILITY.

  * THESE STATIONS DO NOT REPORT WEATHER SUCH AS RAIN...SNOW OR FOG.

NEZ001>004-019>022-054>056-301700-
NEBRASKA PANHANDLE

CITY           SKY/WX    TMP DP  RH WIND       PRES   REMARKS
SCOTTSBLUFF    SUNNY     74  63  68 E5        30.01S
ALLIANCE       SUNNY     75  62  64 SE5       30.00F
CHADRON        SUNNY     79  60  52 SW7       29.95F
KIMBALL        SUNNY     78  59  53 S13       30.05F
SIDNEY         SUNNY     75  64  68 NE7       30.04F
$$

NEZ057>060-069>072-079>082-301700-
SOUTHWEST NEBRASKA

CITY           SKY/WX    TMP DP  RH WIND       PRES   REMARKS
NORTH PLATTE   PTSUNNY   73  65  75 SE15      30.01F
IMPERIAL       MOSUNNY   76  61  59 VRB6      30.00F
LEXINGTON      CLOUDY    68  63  82 E14       30.03F
MCCOOK         SUNNY     80  64  58 SE7       29.99F
OGALLALA       SUNNY     77  62  60 SE3       29.99S
$$

NEZ005>010-023>029-035>040-094-301700-
NORTH CENTRAL NEBRASKA

CITY           SKY/WX    TMP DP  RH WIND       PRES   REMARKS
VALENTINE      SUNNY     74  61  63 S17       29.98F
AINSWORTH      CLOUDY    74  64  72 S14       30.00F
BROKEN BOW     CLOUDY    68  62  81 SE13      30.02F
O`NEILL        SUNNY     74  63  69 S8        30.00F
ORD            MOSUNNY   72  64  76 S8        30.00F
THEDFORD       CLOUDY    71  64  78 S13       30.03S
$$

NEZ041-046>049-061>064-073>077-083>087-301700-
SOUTH CENTRAL NEBRASKA

CITY           SKY/WX    TMP DP  RH WIND       PRES   REMARKS
GRAND ISLAND   LGT RAIN  65  63  93 CALM      30.04F
AURORA         LGT RAIN  64  64  99 SW5       30.04R
HASTINGS       CLOUDY    66  63  90 E7        30.05S
HEBRON         TSTM      63  61  93 NW10      30.08R VSB 3/4
HOLDREGE       CLOUDY    71  65  82 E12       30.04S
KEARNEY *      PTSUNNY   72  63  73 E6        30.05S
YORK           CLOUDY    64  63  94 SE9       30.01F
$$

NEZ011>018-030>034-042>045-301700-
NORTHEAST NEBRASKA

CITY           SKY/WX    TMP DP  RH WIND       PRES   REMARKS
NORFOLK        CLOUDY    72  61  68 SE12      30.01F
ALBION         MOSUNNY   68  65  89 S9        30.01S
BLAIR          PTSUNNY   71  65  81 E3        30.04S
FREMONT        CLOUDY    69  63  81 NE6       30.04S
TEKAMAH        MOSUNNY   71  63  75 E5        30.03F
WAYNE          MOSUNNY   74  65  75 SE7       30.02F
$$

NEZ050>053-065>068-078-088>093-301700-
SOUTHEAST NEBRASKA

CITY           SKY/WX    TMP DP  RH WIND       PRES   REMARKS
LINCOLN        CLOUDY    71  64  78 E3        30.04S
OMAHA EPPLEY   PTSUNNY   73  64  73 CALM      30.04S
BEATRICE       CLOUDY    74  63  68 E5        30.03S
FALLS CITY     SUNNY     76  66  71 SE3       30.03R
NEBRASKA CITY  PTSUNNY   73  64  74 E3        30.04S
PLATTSMOUTH    CLOUDY    71  64  79 NE6       30.04F
$$

NEZ044-045-051>053-067-301700-
OMAHA AREA

CITY           SKY/WX    TMP DP  RH WIND       PRES   REMARKS
OMAHA EPPLEY   PTSUNNY   73  64  73 CALM      30.04S
BLAIR          PTSUNNY   71  65  81 E3        30.04S
FREMONT        CLOUDY    69  63  81 NE6       30.04S
MILLARD        CLOUDY    72  65  78 SE5       30.03F
OFFUTT AFB     CLOUDY    71  65  81 E6        30.03F
PLATTSMOUTH    CLOUDY    71  64  79 NE6       30.04F
WAHOO          FAIR      69  64  85 SE6       30.04S
$$




USA.gov is the U.S. government's official web portal to all federal, state and local government web resources and services.